Terminal Aerodrome Forecast
Issued by NWS Salt Lake City, UT

Home | Current Version | Previous Version | Text Only | Print | Product List | Glossary On
Versions: 1 2 3 4 5 6 7 8 9 10 11 12 13 14 15 16 17 18 19 20 21 22 23 24 25 26 27 28 29 30 31 32 33 34 35 36 37 38 39 40 41 42 43 44 45 46 47 48 49 50
000
FTUS45 KSLC 240716 AAA
TAFSLC
TAF AMD
KSLC 240716Z 2407/2512 34008KT 6SM -SHSN SCT025 BKN060
      TEMPO 2408/2412 4SM -SN SCT009 BKN025
     FM241900 31006KT P6SM VCSH SCT040 BKN070
     FM250300 16006KT P6SM SCT070 BKN120=

USA.gov is the U.S. government's official web portal to all federal, state and local government web resources and services.